M I D A S
Marine Information and Data Acquisition System
Tripno 475 of the Zeeleeuw from 2003-01-17 07:44:18 to 2003-01-17 12:53:44
Back to CruiseResearch ActivitiesStationsMapUnderway DataData graphs

EquipmentUnitsComments
TimeDGPSUTC
LatitudeDGPSDM.mWGS84
LongitudeDGPSDM.mWGS84
SpeedMeteo Stationm/sRelative wind speed
DirectionMeteo StationdegRelative wind direction
TemperatureMeteo Stationdeg CelciusAir temperature
PressureMeteo StationPaAtmospheric pressure
HumidityMeteo Station%Relative humidity
Missing or incorrect values are displayed as -999
Metereological data collected by the RV Zeeleeuw from 2003-01-17 07:44:18 to 2003-01-17 12:53:44
                                                                                    Next 1000 lines
Time Latitude Longitude Speed Direction Temperature Pressure Humidity
2003-01-17 07:44:28 51°13.633 2°55.932 5.9 144 2.1 102050 90
2003-01-17 07:44:34 51°13.636 2°55.92 8.7 134 2.1 102050 90
2003-01-17 07:44:38 51°13.638 2°55.911 3.8 114 2.1 102050 90
2003-01-17 07:44:44 51°13.642 2°55.899 4 127 2.1 102050 90
2003-01-17 07:44:49 51°13.644 2°55.889 2.7 88 2.1 102050 90
2003-01-17 07:44:54 51°13.647 2°55.878 2.5 62 2.1 102050 90
2003-01-17 07:44:59 51°13.65 2°55.868 2 42 2.1 102050 90
2003-01-17 07:45:04 51°13.653 2°55.857 1.5 97 2.1 102050 90
2003-01-17 07:45:09 51°13.656 2°55.847 5.8 102 2.1 102050 90
2003-01-17 07:45:14 51°13.659 2°55.836 4.6 136 2.1 102060 90
2003-01-17 07:45:18 51°13.661 2°55.828 9.7 102 2.1 102060 90
2003-01-17 07:45:24 51°13.665 2°55.816 9.2 116 2.1 102050 90
2003-01-17 07:45:28 51°13.667 2°55.808 7.4 130 2.1 102050 90
2003-01-17 07:45:34 51°13.669 2°55.797 6.4 124 2.1 102050 90
2003-01-17 07:45:38 51°13.671 2°55.791 6.2 129 2.1 102050 90
2003-01-17 07:45:42 51°13.672 2°55.785 7.6 125 2.1 102050 90
2003-01-17 07:45:48 51°13.673 2°55.78 8.4 130 2.1 102050 90
2003-01-17 07:45:53 51°13.674 2°55.776 6.9 114 2.1 102050 90
2003-01-17 07:45:58 51°13.675 2°55.774 7.9 135 2.1 102050 90
2003-01-17 07:46:02 51°13.676 2°55.774 7.3 139 2.1 102050 90
2003-01-17 07:46:08 51°13.677 2°55.773 7 125 2.1 102050 90
2003-01-17 07:46:13 51°13.678 2°55.774 6.6 108 2.1 102040 90
2003-01-17 07:46:18 51°13.679 2°55.775 8 82 2.1 102040 90
2003-01-17 07:46:22 51°13.681 2°55.777 4.2 77 2.1 102040 90
2003-01-17 07:46:28 51°13.683 2°55.779 5.9 112 2.1 102040 90
2003-01-17 07:46:32 51°13.686 2°55.781 4.2 79 2.1 102040 90
2003-01-17 07:46:38 51°13.689 2°55.784 5.8 78 2.1 102040 90
2003-01-17 07:46:43 51°13.693 2°55.786 6.1 63 2.1 102040 90
2003-01-17 07:46:48 51°13.698 2°55.787 6.2 73 2.1 102040 90
2003-01-17 07:46:53 51°13.703 2°55.787 5.5 49 2.1 102050 90
2003-01-17 07:46:58 51°13.708 2°55.787 4.6 24 2.1 102050 90
2003-01-17 07:47:03 51°13.713 2°55.785 9 17 2.1 102050 90
2003-01-17 07:47:08 51°13.719 2°55.782 7.3 7 2.1 102050 90
2003-01-17 07:47:13 51°13.724 2°55.777 3.1 330 2.2 102060 90
2003-01-17 07:47:18 51°13.729 2°55.772 8.7 11 2.2 102060 90
2003-01-17 07:47:23 51°13.734 2°55.766 5.3 352 2.1 102060 90
2003-01-17 07:47:28 51°13.739 2°55.759 1.9 348 2.1 102060 90
2003-01-17 07:47:34 51°13.744 2°55.752 2.7 353 2.1 102070 90
2003-01-17 07:47:38 51°13.748 2°55.746 3.1 348 2.1 102070 90
2003-01-17 07:47:42 51°13.751 2°55.74 1.4 316 2.1 102070 90
2003-01-17 07:47:48 51°13.756 2°55.731 2.5 2 2.1 102070 90
2003-01-17 07:47:53 51°13.761 2°55.723 3 324 2.1 102060 90
2003-01-17 07:47:58 51°13.765 2°55.715 2.9 350 2.1 102060 90
2003-01-17 07:48:02 51°13.769 2°55.709 6.6 350 2.1 102060 90
2003-01-17 07:48:08 51°13.774 2°55.699 3.5 340 2.1 102060 90
2003-01-17 07:48:13 51°13.779 2°55.69 4.5 4 2.1 102060 90
2003-01-17 07:48:18 51°13.784 2°55.681 3.3 12 2.1 102060 90
2003-01-17 07:48:22 51°13.787 2°55.674 2.6   2.1 102070 90
2003-01-17 07:48:28 51°13.793 2°55.662 7.1 359 2.1 102070 90
2003-01-17 07:48:33 51°13.799 2°55.653 5.1 340 2.1 102060 90
2003-01-17 07:48:38 51°13.804 2°55.644 4.1 350 2.1 102060 90
2003-01-17 07:48:42 51°13.808 2°55.637 4.3 334 2.1 102050 90
2003-01-17 07:48:48 51°13.815 2°55.627 2.5 273 2.1 102050 90
2003-01-17 07:48:52 51°13.82 2°55.62 2.6 350 2.1 102060 90
2003-01-17 07:48:58 51°13.828 2°55.611 2.9 341 2.1 102060 90
2003-01-17 07:49:02 51°13.833 2°55.605 4 4 2.1 102060 90
2003-01-17 07:49:08 51°13.842 2°55.597 2.9 353 2.1 102060 90
2003-01-17 07:49:12 51°13.848 2°55.592 3.4 345 2.1 102040 90
2003-01-17 07:49:18 51°13.857 2°55.585 4.8 346 2.1 102040 90
2003-01-17 07:49:23 51°13.864 2°55.58 5.3 340 2.1 102050 90
2003-01-17 07:49:28 51°13.872 2°55.575 2.9 343 2.1 102050 90
2003-01-17 07:49:32 51°13.878 2°55.572 5.1 346 2.1 102050 90
2003-01-17 07:49:38 51°13.888 2°55.567 2.1 1 2.1 102050 90
2003-01-17 07:49:42 51°13.894 2°55.563 3.8 23 2.1 102050 90
2003-01-17 07:49:48 51°13.904 2°55.558 2.7 35 2.1 102050 90
2003-01-17 07:49:53 51°13.912 2°55.554 2.3 347 2.1 102060 90
2003-01-17 07:49:58 51°13.92 2°55.549 3.8 19 2.1 102060 90
2003-01-17 07:50:03 51°13.928 2°55.544 3.2 31 2.2 102050 90
2003-01-17 07:50:08 51°13.936 2°55.54 3.7 50 2.2 102050 90
2003-01-17 07:50:14 51°13.946 2°55.535 4.7 11 2.1 102050 90
2003-01-17 07:50:18 51°13.952 2°55.531 2.9 3 2.1 102050 90
2003-01-17 07:50:22 51°13.959 2°55.527 1.7 324 2.2 102050 90
2003-01-17 07:50:28 51°13.968 2°55.521 1.8 31 2.2 102050 90
2003-01-17 07:50:33 51°13.977 2°55.517 2.6 28 2.2 102050 90
2003-01-17 07:50:38 51°13.985 2°55.512 4.5 40 2.2 102050 90
2003-01-17 07:50:42 51°13.991 2°55.509 2.6 59 2.2 102050 90
2003-01-17 07:50:48 51°14.001 2°55.504 1.7 39 2.2 102050 90
2003-01-17 07:50:53 51°14.01 2°55.499 3.6 18 2.2 102050 90
2003-01-17 07:50:58 51°14.019 2°55.494 2.8 18 2.2 102050 90
2003-01-17 07:51:02 51°14.025 2°55.489 4.4 132 2.2 102050 90
2003-01-17 07:51:08 51°14.036 2°55.483 4.2 39 2.2 102050 90
2003-01-17 07:51:13 51°14.044 2°55.477 2.8 2 2.2 102050 90
2003-01-17 07:51:18 51°14.053 2°55.471 3.1 4 2.2 102050 90
2003-01-17 07:51:22 51°14.06 2°55.466 2.4 355 2.2 102050 90
2003-01-17 07:51:28 51°14.07 2°55.458 1.1 349 2.2 102050 90
2003-01-17 07:51:33 51°14.079 2°55.452 1 317 2.2 102050 90
2003-01-17 07:51:38 51°14.088 2°55.445 1.6 343 2.2 102050 90
2003-01-17 07:51:43 51°14.096 2°55.437 0.8 329 2.2 102050 90
2003-01-17 07:51:48 51°14.105 2°55.43 1 294 2.2 102050 90
2003-01-17 07:51:53 51°14.114 2°55.423 1.1 356 2.2 102050 90
2003-01-17 07:51:58 51°14.122 2°55.415 0.9 348 2.2 102050 90
2003-01-17 07:52:04 51°14.133 2°55.406 2.4 301 2.2 102050 90
2003-01-17 07:52:08 51°14.14 2°55.4 2.2 7 2.2 102050 90
2003-01-17 07:52:12 51°14.147 2°55.394 3.5 353 2.2 102050 90
2003-01-17 07:52:18 51°14.157 2°55.384 4.5 354 2.2 102050 90
2003-01-17 07:52:22 51°14.164 2°55.378 4.3 345 2.2 102040 90
2003-01-17 07:52:28 51°14.174 2°55.368 3.6 332 2.2 102040 90
2003-01-17 07:52:33 51°14.182 2°55.359 4.4 342 2.2 102040 90
2003-01-17 07:52:38 51°14.19 2°55.35 3.7 350 2.2 102040 90
2003-01-17 07:52:43 51°14.199 2°55.341 3 317 2.2 102050 90
2003-01-17 07:52:48 51°14.207 2°55.331 2.1 305 2.2 102050 90
2003-01-17 07:52:53 51°14.214 2°55.321 2.3 304 2.2 102060 90
2003-01-17 07:52:58 51°14.222 2°55.311 1.5 347 2.2 102060 90
2003-01-17 07:53:02 51°14.228 2°55.303 2.1 343 2.2 102060 90
2003-01-17 07:53:08 51°14.237 2°55.29 7.1 357 2.2 102060 90
2003-01-17 07:53:13 51°14.244 2°55.28 4.6 309 2.2 102050 90
2003-01-17 07:53:18 51°14.251 2°55.268 1.7 33 2.2 102050 90
2003-01-17 07:53:22 51°14.257 2°55.259 2.4 9 2.2 102050 90
2003-01-17 07:53:28 51°14.265 2°55.246 3.3 317 2.2 102050 90
2003-01-17 07:53:33 51°14.272 2°55.234 4.2 298 2.2 102050 90
2003-01-17 07:53:38 51°14.278 2°55.222 8 291 2.2 102050 90
2003-01-17 07:53:42 51°14.284 2°55.212 4.5 301 2.2 102050 90
2003-01-17 07:53:48 51°14.292 2°55.197 5.2 288 2.2 102050 90
2003-01-17 07:53:52 51°14.298 2°55.186 4.2 278 2.2 102050 90
2003-01-17 07:53:58 51°14.306 2°55.17 6.2 275 2.2 102050 90
2003-01-17 07:54:03 51°14.314 2°55.156 6.3 298 2.2 102040 90
2003-01-17 07:54:08 51°14.321 2°55.142 6 293 2.2 102040 90
2003-01-17 07:54:13 51°14.329 2°55.127 6.9 290 2.2 102040 90
2003-01-17 07:54:18 51°14.337 2°55.112 7 287 2.2 102040 90
2003-01-17 07:54:22 51°14.343 2°55.1 7.3 290 2.2 102040 90
2003-01-17 07:54:28 51°14.352 2°55.082 7 294 2.2 102040 90
2003-01-17 07:54:33 51°14.359 2°55.065 7.9 287 2.2 102040 90
2003-01-17 07:54:38 51°14.367 2°55.049 6.6 292 2.2 102040 90
2003-01-17 07:54:43 51°14.375 2°55.032 7.5 294 2.2 102030 90
2003-01-17 07:54:48 51°14.384 2°55.015 9.3 294 2.2 102030 90
2003-01-17 07:54:54 51°14.393 2°54.994 9.8 297 2.2 102040 90
2003-01-17 07:54:58 51°14.4 2°54.98 6 353 2.2 102040 90
2003-01-17 07:55:03 51°14.408 2°54.962 4.5 321 2.2 102040 90
2003-01-17 07:55:08 51°14.417 2°54.945 2.6 314 2.2 102040 90
2003-01-17 07:55:12 51°14.424 2°54.93 2.3 340 2.3 102030 90
2003-01-17 07:55:18 51°14.434 2°54.908 2.4 316 2.3 102030 90
2003-01-17 07:55:22 51°14.441 2°54.893 5.1 316 2.2 102040 90
2003-01-17 07:55:28 51°14.45 2°54.869 5.9 301 2.2 102040 90
2003-01-17 07:55:34 51°14.459 2°54.846 8.3 289 2.3 102040 90
2003-01-17 07:55:38 51°14.466 2°54.83 8 300 2.3 102040 90
2003-01-17 07:55:42 51°14.473 2°54.815 5.3 314 2.2 102040 89
2003-01-17 07:55:48 51°14.484 2°54.792 3.3 328 2.2 102040 89
2003-01-17 07:55:53 51°14.493 2°54.774 6.2 341 2.3 102040 90
2003-01-17 07:55:58 51°14.503 2°54.756 2 341 2.3 102040 90
2003-01-17 07:56:03 51°14.512 2°54.738 4.2 311 2.2 102040 90
2003-01-17 07:56:08 51°14.521 2°54.719 6.7 322 2.2 102040 90
2003-01-17 07:56:13 51°14.53 2°54.7 5.3 301 2.2 102050 89
2003-01-17 07:56:18 51°14.539 2°54.681 6.4 281 2.2 102050 89
2003-01-17 07:56:22 51°14.546 2°54.665 6.1 288 2.3 102060 89
2003-01-17 07:56:28 51°14.556 2°54.642 3.6 321 2.3 102060 89
2003-01-17 07:56:33 51°14.566 2°54.623 4.3 321 2.2 102040 89
2003-01-17 07:56:38 51°14.575 2°54.605 6.9 311 2.2 102040 89
2003-01-17 07:56:42 51°14.583 2°54.59 6.8 319 2.2 102040 89
2003-01-17 07:56:48 51°14.595 2°54.569 9.6 300 2.2 102040 89
2003-01-17 07:56:52 51°14.603 2°54.554 10.2 299 2.2 102030 89
2003-01-17 07:56:58 51°14.615 2°54.532 9.5 320 2.2 102030 89
2003-01-17 07:57:03 51°14.624 2°54.513 6 306 2.3 102040 89
2003-01-17 07:57:08 51°14.634 2°54.493 6.1 321 2.3 102040 89
2003-01-17 07:57:13 51°14.644 2°54.473 6.3 296 2.3 102040 89
2003-01-17 07:57:18 51°14.654 2°54.454 5.9 312 2.3 102040 89
2003-01-17 07:57:23 51°14.664 2°54.434 3.6 323 2.3 102010 89
2003-01-17 07:57:28 51°14.674 2°54.414 4.7 325 2.3 102010 89
2003-01-17 07:57:33 51°14.685 2°54.393 6 302 2.3 102020 89
2003-01-17 07:57:38 51°14.694 2°54.373 4.7 311 2.3 102020 89
2003-01-17 07:57:42 51°14.702 2°54.357 7.9 305 2.3 102020 89
2003-01-17 07:57:48 51°14.714 2°54.332 9.9 294 2.3 102020 89
2003-01-17 07:57:52 51°14.722 2°54.315 8.9 293 2.3 102030 89
2003-01-17 07:57:58 51°14.734 2°54.291 11.8 295 2.3 102030 89
2003-01-17 07:58:02 51°14.742 2°54.274 10.2 300 2.3 102030 90
2003-01-17 07:58:08 51°14.753 2°54.249 11.2 302 2.3 102030 90
2003-01-17 07:58:13 51°14.762 2°54.228 12.1 298 2.3 102020 90
2003-01-17 07:58:18 51°14.769 2°54.205 16.2 292 2.3 102020 90
2003-01-17 07:58:23 51°14.775 2°54.181 15.8 299 2.3 102020 90
2003-01-17 07:58:28 51°14.781 2°54.157 13.5 301 2.3 102020 90
2003-01-17 07:58:33 51°14.787 2°54.133 10.9 296 2.3 102010 90
2003-01-17 07:58:38 51°14.793 2°54.11 12.3 307 2.3 102010 90
2003-01-17 07:58:42 51°14.799 2°54.092 7.8 311 2.3 101990 90
2003-01-17 07:58:48 51°14.808 2°54.064 8 310 2.3 101990 90
2003-01-17 07:58:53 51°14.815 2°54.041 12.7 300 2.3 102000 89
2003-01-17 07:58:58 51°14.822 2°54.018 14.2 297 2.3 102000 89
2003-01-17 07:59:02 51°14.828 2°53.999 13.6 297 2.3 102000 89
2003-01-17 07:59:08 51°14.836 2°53.971 12 298 2.3 102000 89
2003-01-17 07:59:13 51°14.843 2°53.947 12.1 292 2.3 102000 89
2003-01-17 07:59:18 51°14.85 2°53.924 10.5 301 2.3 102000 89
2003-01-17 07:59:22 51°14.856 2°53.905 10.1 296 2.4 102010 89
2003-01-17 07:59:28 51°14.864 2°53.877 9.2 326 2.4 102010 89
2003-01-17 07:59:33 51°14.871 2°53.853 12 293 2.3 102010 89
2003-01-17 07:59:38 51°14.878 2°53.829 14 298 2.3 102010 89
2003-01-17 07:59:43 51°14.884 2°53.805 12.6 296 2.4 102020 89
2003-01-17 07:59:48 51°14.89 2°53.78 12.7 294 2.4 102020 89
2003-01-17 07:59:53 51°14.896 2°53.756 13.1 294 2.4 102020 90
2003-01-17 07:59:58 51°14.902 2°53.732 13.7 297 2.4 102020 90
2003-01-17 08:00:02 51°14.908 2°53.712 12.2 302 2.4 102010 90
2003-01-17 08:00:08 51°14.916 2°53.684 11.6 306 2.4 102010 90
2003-01-17 08:00:13 51°14.924 2°53.66 5.6 319 2.4 102010 90
2003-01-17 08:00:18 51°14.931 2°53.637 10.9 293 2.4 102010 90
2003-01-17 08:00:22 51°14.937 2°53.619 13 294 2.4 102000 90
2003-01-17 08:00:28 51°14.946 2°53.59 14.3 299 2.4 102000 90
2003-01-17 08:00:33 51°14.952 2°53.566 13.3 293 2.4 102010 89
2003-01-17 08:00:38 51°14.958 2°53.542 13.5 297 2.4 102010 89
2003-01-17 08:00:42 51°14.963 2°53.522 12.4 293 2.4 102020 89
2003-01-17 08:00:48 51°14.97 2°53.493 15.2 295 2.4 102020 89
2003-01-17 08:00:54 51°14.977 2°53.464 15.3 297 2.4 102020 89
2003-01-17 08:00:58 51°14.983 2°53.445 12.8 297 2.4 102020 89
2003-01-17 08:01:02 51°14.988 2°53.427 11.5 299 2.4 102000 90
2003-01-17 08:01:08 51°14.998 2°53.399 10.2 297 2.4 102000 90
2003-01-17 08:01:13 51°15.006 2°53.377 11.1 301 2.4 102000 90
2003-01-17 08:01:18 51°15.015 2°53.355 11 302 2.4 102000 90
2003-01-17 08:01:24 51°15.024 2°53.328 12.3 300 2.4 102000 90
2003-01-17 08:01:28 51°15.029 2°53.309 12.5 294 2.4 102000 90
2003-01-17 08:01:32 51°15.034 2°53.29 13.3 297 2.4 102000 90
2003-01-17 08:01:38 51°15.041 2°53.261 10.4 300 2.4 102000 90
2003-01-17 08:01:42 51°15.046 2°53.241 15.1 295 2.4 102010 90
2003-01-17 08:01:48 51°15.053 2°53.213 15.1 295 2.4 102010 90
2003-01-17 08:01:52 51°15.059 2°53.193 13.1 291 2.4 102010 90
2003-01-17 08:01:58 51°15.067 2°53.165 13.2 298 2.4 102010 90
2003-01-17 08:02:02 51°15.072 2°53.146 12.4 296 2.4 102010 90
2003-01-17 08:02:08 51°15.08 2°53.118 11.9 299 2.4 102010 90
2003-01-17 08:02:13 51°15.087 2°53.094 13.3 300 2.4 102010 90
2003-01-17 08:02:18 51°15.094 2°53.07 14.3 296 2.4 102010 90
2003-01-17 08:02:22 51°15.099 2°53.051 14.5 299 2.5 102000 90
2003-01-17 08:02:28 51°15.107 2°53.022 12 295 2.5 102000 90
2003-01-17 08:02:33 51°15.114 2°52.998 10.8 305 2.5 102010 90
2003-01-17 08:02:38 51°15.12 2°52.974 12 302 2.5 102010 90
2003-01-17 08:02:42 51°15.125 2°52.955 11.5 299 2.5 102000 90
2003-01-17 08:02:48 51°15.134 2°52.926 11.3 302 2.5 102000 90
2003-01-17 08:02:53 51°15.141 2°52.902 12.4 299 2.4 102000 90
2003-01-17 08:02:58 51°15.148 2°52.878 11.3 299 2.4 102000 90
2003-01-17 08:03:02 51°15.154 2°52.86 12.4 298 2.5 102010 90
2003-01-17 08:03:08 51°15.163 2°52.831 13.1 295 2.5 102010 90
2003-01-17 08:03:13 51°15.169 2°52.807 12.6 284 2.4 102010 90
2003-01-17 08:03:18 51°15.174 2°52.782 14.2 297 2.4 102010 90
2003-01-17 08:03:22 51°15.179 2°52.762 12.9 293 2.4 102010 89
2003-01-17 08:03:28 51°15.185 2°52.732 13.6 298 2.4 102010 89
2003-01-17 08:03:32 51°15.19 2°52.712 13.4 297 2.5 102010 89
2003-01-17 08:03:38 51°15.197 2°52.682 12.5 302 2.5 102010 89
2003-01-17 08:03:42 51°15.202 2°52.663 11.7 297 2.5 102000 89
2003-01-17 08:03:48 51°15.209 2°52.634 14 292 2.5 102000 89
2003-01-17 08:03:54 51°15.218 2°52.605 14.7 298 2.5 102000 90
2003-01-17 08:03:58 51°15.223 2°52.586 12.1 299 2.5 102000 90
2003-01-17 08:04:02 51°15.229 2°52.567 11.6 303 2.5 102010 89
2003-01-17 08:04:08 51°15.238 2°52.539 14.5 298 2.5 102010 89
2003-01-17 08:04:13 51°15.245 2°52.515 13.6 293 2.5 102020 90
2003-01-17 08:04:18 51°15.251 2°52.491 15.4 294 2.5 102020 90
2003-01-17 08:04:22 51°15.256 2°52.471 15.2 292 2.5 102010 90
2003-01-17 08:04:28 51°15.262 2°52.441 14.8 295 2.5 102010 90
2003-01-17 08:04:33 51°15.268 2°52.416 14.2 294 2.5 102000 90
2003-01-17 08:04:38 51°15.274 2°52.391 15.7 298 2.5 102000 90
2003-01-17 08:04:42 51°15.279 2°52.372 14.6 297 2.5 102010 90
2003-01-17 08:04:48 51°15.288 2°52.344 14.6 298 2.5 102010 90
2003-01-17 08:04:53 51°15.294 2°52.32 11.3 302 2.5 102000 90
2003-01-17 08:04:58 51°15.301 2°52.295 10.9 312 2.5 102000 90
2003-01-17 08:05:03 51°15.307 2°52.271 14 290 2.5 102000 90
2003-01-17 08:05:08 51°15.313 2°52.247 13.8 295 2.5 102000 90
2003-01-17 08:05:12 51°15.319 2°52.227 10.5 302 2.5 102010 89
2003-01-17 08:05:18 51°15.327 2°52.199 12.2 293 2.5 102010 89
2003-01-17 08:05:23 51°15.334 2°52.175 13 301 2.5 102000 90
2003-01-17 08:05:28 51°15.341 2°52.151 12.7 292 2.5 102000 90
2003-01-17 08:05:32 51°15.346 2°52.131 13 292 2.5 102010 90
2003-01-17 08:05:38 51°15.354 2°52.102 12.4 292 2.5 102010 90
2003-01-17 08:05:43 51°15.36 2°52.078 13 294 2.5 102010 90
2003-01-17 08:05:48 51°15.367 2°52.053 13.7 293 2.5 102010 90
2003-01-17 08:05:53 51°15.374 2°52.029 12.7 301 2.5 102010 90
2003-01-17 08:05:58 51°15.381 2°52.006 10.7 303 2.5 102010 90
2003-01-17 08:06:02 51°15.388 2°51.987 12.5 294 2.5 102000 90
2003-01-17 08:06:08 51°15.398 2°51.96 10.1 296 2.5 102000 90
2003-01-17 08:06:12 51°15.404 2°51.942 12.6 298 2.5 102000 90
2003-01-17 08:06:18 51°15.413 2°51.914 15.1 289 2.5 102000 90
2003-01-17 08:06:22 51°15.417 2°51.894 15.1 285 2.5 102000 90
2003-01-17 08:06:28 51°15.421 2°51.864 18.1 288 2.5 102000 90
2003-01-17 08:06:33 51°15.423 2°51.838 17.4 288 2.5 102010 90
2003-01-17 08:06:38 51°15.425 2°51.812 14.9 288 2.5 102010 90
2003-01-17 08:06:42 51°15.425 2°51.792 15.4 287 2.5 102000 90
2003-01-17 08:06:48 51°15.423 2°51.761 17.1 281 2.5 102000 90
2003-01-17 08:06:53 51°15.421 2°51.736 16.5 275 2.5 101990 90
2003-01-17 08:06:58 51°15.417 2°51.711 18.6 269 2.5 101990 90
2003-01-17 08:07:02 51°15.414 2°51.691 17.6 266 2.5 101980 90
2003-01-17 08:07:08 51°15.407 2°51.663 19.1 262 2.5 101980 90
2003-01-17 08:07:13 51°15.401 2°51.639 18.8 263 2.5 101980 90
2003-01-17 08:07:18 51°15.393 2°51.616 17.9 264 2.5 101980 90
2003-01-17 08:07:23 51°15.386 2°51.594 17.8 265 2.5 101980 90
2003-01-17 08:07:28 51°15.377 2°51.572 18.4 262 2.5 101980 90
2003-01-17 08:07:33 51°15.369 2°51.55 17.7 263 2.5 101970 90
2003-01-17 08:07:38 51°15.361 2°51.527 17.7 264 2.5 101970 90
2003-01-17 08:07:42 51°15.355 2°51.509 17.4 263 2.5 101960 90
2003-01-17 08:07:48 51°15.347 2°51.481 17.2 268 2.5 101960 90
2003-01-17 08:07:52 51°15.342 2°51.462 16.9 273 2.5 101970 90
2003-01-17 08:07:58 51°15.335 2°51.432 15.8 267 2.5 101970 90
2003-01-17 08:08:03 51°15.329 2°51.408 16.6 268 2.5 101970 90
2003-01-17 08:08:08 51°15.323 2°51.383 18.1 267 2.5 101970 90
2003-01-17 08:08:13 51°15.317 2°51.358 18 268 2.5 101960 89
2003-01-17 08:08:18 51°15.311 2°51.334 17.9 272 2.5 101960 89
2003-01-17 08:08:22 51°15.306 2°51.315 17.8 269 2.5 101960 90
2003-01-17 08:08:28 51°15.297 2°51.286 16.7 263 2.5 101960 90
2003-01-17 08:08:33 51°15.29 2°51.262 17.5 266 2.5 101980 90
2003-01-17 08:08:38 51°15.283 2°51.239 16.1 264 2.5 101980 90
2003-01-17 08:08:42 51°15.278 2°51.219 16.2 266 2.5 101970 90
2003-01-17 08:08:48 51°15.27 2°51.19 17.3 271 2.5 101970 90
2003-01-17 08:08:53 51°15.265 2°51.165 17.7 274 2.5 101970 90
2003-01-17 08:08:58 51°15.259 2°51.141 18 269 2.5 101970 90
2003-01-17 08:09:02 51°15.254 2°51.121 17.3 273 2.5 101970 90
2003-01-17 08:09:08 51°15.248 2°51.091 17.7 273 2.5 101970 90
2003-01-17 08:09:13 51°15.243 2°51.067 17.5 271 2.5 101970 90
2003-01-17 08:09:18 51°15.238 2°51.044 16.5 274 2.5 101970 90
2003-01-17 08:09:22 51°15.234 2°51.027 17 272 2.5 101960 90
2003-01-17 08:09:28 51°15.228 2°51.001 16 271 2.5 101960 90
2003-01-17 08:09:33 51°15.223 2°50.982 15.3 274 2.5 101970 90
2003-01-17 08:09:38 51°15.219 2°50.963 16.2 269 2.5 101970 90
2003-01-17 08:09:42 51°15.214 2°50.949 18.3 266 2.5 101970 90
2003-01-17 08:09:48 51°15.209 2°50.928 17.3 264 2.5 101970 90
2003-01-17 08:09:52 51°15.204 2°50.915 17.9 264 2.5 101970 90
2003-01-17 08:09:58 51°15.199 2°50.895 16.5 268 2.5 101970 90
2003-01-17 08:10:03 51°15.194 2°50.88 16.5 267 2.5 101990 90
2003-01-17 08:10:08 51°15.189 2°50.865 16.5 268 2.5 101990 90
2003-01-17 08:10:13 51°15.184 2°50.85 16.5 270 2.5 101980 90
2003-01-17 08:10:18 51°15.179 2°50.836 15.5 350 2.5 101980 90
2003-01-17 08:10:22 51°15.175 2°50.825 15.3 266 2.5 101960 90
2003-01-17 08:10:28 51°15.169 2°50.808 14.6 268 2.5 101960 90
2003-01-17 08:10:33 51°15.164 2°50.795 12.9 268 2.5 101970 89
2003-01-17 08:10:38 51°15.159 2°50.782 13.9 261 2.5 101970 89
2003-01-17 08:10:42 51°15.155 2°50.771 14.4 264 2.5 101970 89
2003-01-17 08:10:48 51°15.149 2°50.756 14.8 261 2.5 101970 89
2003-01-17 08:10:52 51°15.145 2°50.745 15 268 2.5 101980 89
2003-01-17 08:10:58 51°15.139 2°50.73 15.4 266 2.5 101980 89
2003-01-17 08:11:02 51°15.135 2°50.719 14.9 268 2.5 102000 90
2003-01-17 08:11:08 51°15.13 2°50.703 14 268 2.5 102000 90
2003-01-17 08:11:13 51°15.125 2°50.69 13.2 269 2.5 101990 90
2003-01-17 08:11:18 51°15.121 2°50.677 12.8 271 2.5 101990 90
2003-01-17 08:11:22 51°15.118 2°50.667 12.1 270 2.5 101980 90
2003-01-17 08:11:28 51°15.113 2°50.651 14.5 270 2.5 101980 90
2003-01-17 08:11:33 51°15.109 2°50.638 14 274 2.5 101990 90
2003-01-17 08:11:38 51°15.106 2°50.624 16.1 269 2.5 101990 90
2003-01-17 08:11:43 51°15.103 2°50.611 16.8 268 2.5 102000 90
2003-01-17 08:11:48 51°15.099 2°50.597 16.8 275 2.5 102000 90
2003-01-17 08:11:53 51°15.096 2°50.584 16.4 279 2.5 101990 90
2003-01-17 08:11:58 51°15.093 2°50.57 16 279 2.5 101990 90
2003-01-17 08:12:02 51°15.091 2°50.56 15.8 279 2.5 101990 90
2003-01-17 08:12:08 51°15.087 2°50.544 16.6 276 2.5 101990 90
2003-01-17 08:12:14 51°15.083 2°50.528 16.3 278 2.5 101980 90
2003-01-17 08:12:18 51°15.081 2°50.517 15.1 278 2.5 101980 90
2003-01-17 08:12:22 51°15.078 2°50.506 14.5 275 2.5 101970 90
2003-01-17 08:12:28 51°15.074 2°50.491 16.6 272 2.5 101970 90
2003-01-17 08:12:33 51°15.07 2°50.478 17.8 274 2.5 101980 89
2003-01-17 08:12:38 51°15.066 2°50.466 16.8 267 2.5 101980 89
2003-01-17 08:12:42 51°15.064 2°50.457 17.9 269 2.5 101980 89
2003-01-17 08:12:48 51°15.059 2°50.442 15.9 268 2.5 101980 89
2003-01-17 08:12:53 51°15.054 2°50.431 15.3 265 2.5 101980 89
2003-01-17 08:12:58 51°15.05 2°50.42 15.3 265 2.5 101980 89
2003-01-17 08:13:04 51°15.044 2°50.407 15.1 259 2.5 101980 89
2003-01-17 08:13:08 51°15.041 2°50.399 16.3 263 2.5 101980 89
2003-01-17 08:13:12 51°15.037 2°50.392 15.8 257 2.4 101980 89
2003-01-17 08:13:18 51°15.031 2°50.382 16.2 255 2.4 101980 89
2003-01-17 08:13:22 51°15.027 2°50.375 15.6 249 2.4 101990 89
2003-01-17 08:13:28 51°15.022 2°50.366 14 251 2.4 101990 89
2003-01-17 08:13:33 51°15.018 2°50.359 14.7 251 2.4 101990 89
2003-01-17 08:13:38 51°15.014 2°50.353 14.2 241 2.4 101990 89
2003-01-17 08:13:42 51°15.01 2°50.348 13.2 247 2.5 102000 90
2003-01-17 08:13:48 51°15.006 2°50.341 12.7 249 2.5 102000 90
2003-01-17 08:13:52 51°15.002 2°50.337 12.2 246 2.5 102000 90
2003-01-17 08:13:58 51°14.997 2°50.331 13.7 248 2.5 102000 90
2003-01-17 08:14:02 51°14.994 2°50.327 14.5 245 2.4 102000 90
2003-01-17 08:14:08 51°14.99 2°50.322 15.9 244 2.4 102000 90
2003-01-17 08:14:12 51°14.987 2°50.318 15.9 245 2.5 102010 90
2003-01-17 08:14:18 51°14.983 2°50.313 14.9 244 2.5 102010 90
2003-01-17 08:14:22 51°14.981 2°50.309 14.8 241 2.5 102000 90
2003-01-17 08:14:28 51°14.977 2°50.304 14.9 243 2.5 102000 90
2003-01-17 08:14:33 51°14.974 2°50.3 15.2 244 2.5 102000 90
2003-01-17 08:14:38 51°14.972 2°50.296 14.3 244 2.5 102000 90
2003-01-17 08:14:43 51°14.969 2°50.292 13.7 248 2.5 102000 90
2003-01-17 08:14:48 51°14.967 2°50.288 13 253 2.5 102000 90
2003-01-17 08:14:52 51°14.965 2°50.286 11.8 251 2.5 102010 90
2003-01-17 08:14:58 51°14.962 2°50.281 12.5 256 2.5 102010 90
2003-01-17 08:15:03 51°14.959 2°50.278 11.5 255 2.5 101990 90
2003-01-17 08:15:08 51°14.957 2°50.274 12.3 251 2.5 101990 90
2003-01-17 08:15:13 51°14.955 2°50.271 13.3 251 2.5 102000 90
2003-01-17 08:15:18 51°14.953 2°50.268 13.5 250 2.5 102000 90
2003-01-17 08:15:24 51°14.951 2°50.264 14.3 250 2.5 102010 90
2003-01-17 08:15:28 51°14.949 2°50.262 11.8 249 2.5 102010 90
2003-01-17 08:15:32 51°14.947 2°50.259 12 247 2.6 102010 90
2003-01-17 08:15:38 51°14.945 2°50.256 12.1 251 2.6 102010 90
2003-01-17 08:15:43 51°14.943 2°50.252 11.2 250 2.5 102010 90
2003-01-17 08:15:48 51°14.941 2°50.249 12.2 240 2.5 102010 90
2003-01-17 08:15:53 51°14.939 2°50.247 12.1 243 2.6 102010 90
2003-01-17 08:15:58 51°14.938 2°50.244 13.7 252 2.6 102010 90
2003-01-17 08:16:04 51°14.936 2°50.241 13.4 249 2.6 102010 90
2003-01-17 08:16:08 51°14.934 2°50.24 15.5 239 2.6 102010 90
2003-01-17 08:16:13 51°14.933 2°50.237 14.7 240 2.6 102010 90
2003-01-17 08:16:18 51°14.931 2°50.236 12.8 240 2.6 102010 90
2003-01-17 08:16:22 51°14.93 2°50.234 14.7 239 2.6 102020 90
2003-01-17 08:16:28 51°14.929 2°50.232 13.9 237 2.6 102020 90
2003-01-17 08:16:32 51°14.928 2°50.231 14.2 244 2.6 102000 90
2003-01-17 08:16:38 51°14.926 2°50.229 14.6 240 2.6 102000 90
2003-01-17 08:16:42 51°14.925 2°50.227 13.8 241 2.6 102010 90
2003-01-17 08:16:48 51°14.923 2°50.226 12.9 239 2.6 102010 90
2003-01-17 08:16:53 51°14.922 2°50.225 12.2 239 2.5 102010 89
2003-01-17 08:16:58 51°14.921 2°50.225 12.3 233 2.5 102010 89
2003-01-17 08:17:02 51°14.92 2°50.224 12.2 230 2.5 102010 89
2003-01-17 08:17:08 51°14.919 2°50.223 11.3 225 2.5 102010 89
2003-01-17 08:17:13 51°14.918 2°50.223 13.3 230 2.5 102010 89
2003-01-17 08:17:18 51°14.917 2°50.223 13.6 218 2.5 102010 89
2003-01-17 08:17:23 51°14.916 2°50.222 11.9 221 2.5 102020 89
2003-01-17 08:17:28 51°14.915 2°50.222 13.4 217 2.5 102020 89
2003-01-17 08:17:33 51°14.914 2°50.222 14.1 219 2.5 102020 89
2003-01-17 08:17:38 51°14.913 2°50.221 12.9 219 2.5 102020 89
2003-01-17 08:17:42 51°14.913 2°50.221 14 211 2.5 102010 89
2003-01-17 08:17:48 51°14.911 2°50.221 13.3 210 2.5 102010 89
2003-01-17 08:17:52 51°14.911 2°50.221 13.3 211 2.5 101990 89
2003-01-17 08:17:58 51°14.91 2°50.221 12.8 210 2.5 101990 89
2003-01-17 08:18:02 51°14.909 2°50.221 13.6 211 2.5 101990 89
2003-01-17 08:18:08 51°14.908 2°50.222 14.2 203 2.5 101990 89
2003-01-17 08:18:12 51°14.908 2°50.222 12.8 203 2.5 101990 89
2003-01-17 08:18:18 51°14.907 2°50.222 12.9 194 2.5 101990 89
2003-01-17 08:18:22 51°14.907 2°50.223 12.8 192 2.5 101990 89
2003-01-17 08:18:28 51°14.907 2°50.223 12.2 193 2.5 101990 89
2003-01-17 08:18:33 51°14.906 2°50.224 13 197 2.5 101990 89
2003-01-17 08:18:38 51°14.906 2°50.225 10.2 189 2.5 101990 89
2003-01-17 08:18:42 51°14.906 2°50.226 11.1 184 2.5 101990 89
2003-01-17 08:18:48 51°14.905 2°50.227 11.4 188 2.5 101990 89
2003-01-17 08:18:54 51°14.905 2°50.228 10.8 182 2.4 102010 89
2003-01-17 08:18:58 51°14.905 2°50.229 10.5 186 2.4 102010 89
2003-01-17 08:19:03 51°14.905 2°50.23 10.3 193 2.4 101990 89
2003-01-17 08:19:08 51°14.904 2°50.231 11.9 193 2.4 101990 89
2003-01-17 08:19:13 51°14.904 2°50.232 10.5 189 2.4 102010 89
2003-01-17 08:19:18 51°14.904 2°50.233 9.6 187 2.4 102010 89
2003-01-17 08:19:22 51°14.903 2°50.234 9.6 188 2.4 101990 89
2003-01-17 08:19:28 51°14.903 2°50.235 9.6 183 2.4 101990 89
2003-01-17 08:19:32 51°14.902 2°50.236 9.9 190 2.4 102000 89
2003-01-17 08:19:38 51°14.901 2°50.238 9.7 190 2.4 102000 89
2003-01-17 08:19:42 51°14.901 2°50.239 9 185 2.4 102020 89
2003-01-17 08:19:48 51°14.9 2°50.24 10.1 193 2.4 102020 89
2003-01-17 08:19:53 51°14.899 2°50.241 9.8 194 2.4 102000 89
2003-01-17 08:19:58 51°14.898 2°50.243 10.2 190 2.4 102000 89
2003-01-17 08:20:02 51°14.897 2°50.244 9.9 192 2.4 102010 89
2003-01-17 08:20:08 51°14.895 2°50.246 11.7 199 2.4 102010 89
2003-01-17 08:20:13 51°14.893 2°50.247 13.1 197 2.5 102010 89
2003-01-17 08:20:18 51°14.892 2°50.248 13.2 196 2.5 102010 89
2003-01-17 08:20:22 51°14.891 2°50.249 12.7 196 2.5 102010 90
2003-01-17 08:20:28 51°14.889 2°50.25 13.1 201 2.5 102010 90
2003-01-17 08:20:33 51°14.887 2°50.251 13.2 198 2.5 102010 90
2003-01-17 08:20:38 51°14.885 2°50.252 13 209 2.5 102010 90
2003-01-17 08:20:42 51°14.883 2°50.253 12.7 206 2.4 101990 89
2003-01-17 08:20:48 51°14.881 2°50.254 13.4 212 2.4 101990 89
2003-01-17 08:20:53 51°14.879 2°50.255 13.3 210 2.4 101980 89
2003-01-17 08:20:58 51°14.877 2°50.256 12.3 221 2.4 101980 89
2003-01-17 08:21:03 51°14.875 2°50.256 13 223 2.4 101970 89
2003-01-17 08:21:08 51°14.873 2°50.256 13 224 2.4 101970 89
2003-01-17 08:21:13 51°14.87 2°50.256 12.5 226 2.4 101980 89
2003-01-17 08:21:18 51°14.868 2°50.257 11.7 221 2.4 101980 89
2003-01-17 08:21:24 51°14.865 2°50.257 11.6 224 2.4 101990 89
2003-01-17 08:21:28 51°14.863 2°50.257 12.8 229 2.4 101990 89
2003-01-17 08:21:33 51°14.86 2°50.257 12.3 234 2.4 101990 89
2003-01-17 08:21:38 51°14.858 2°50.256 15.3 237 2.4 101990 89
2003-01-17 08:21:42 51°14.856 2°50.256 14.1 238 2.4 102000 89
2003-01-17 08:21:48 51°14.853 2°50.255 15.5 239 2.4 102000 89
2003-01-17 08:21:52 51°14.851 2°50.254 15.1 240 2.4 102010 89
2003-01-17 08:21:58 51°14.849 2°50.252 14 244 2.4 102010 89
2003-01-17 08:22:02 51°14.847 2°50.251 14.5 249 2.4 102010 89
2003-01-17 08:22:08 51°14.844 2°50.249 12.8 238 2.4 102010 89
2003-01-17 08:22:13 51°14.842 2°50.248 14.7 248 2.4 102010 89
2003-01-17 08:22:18 51°14.84 2°50.246 13.7 240 2.4 102010 89
2003-01-17 08:22:23 51°14.838 2°50.244 13.3 235 2.4 101990 89
2003-01-17 08:22:28 51°14.835 2°50.242 14 239 2.4 101990 89
2003-01-17 08:22:33 51°14.833 2°50.24 13.9 250 2.4 102000 89
2003-01-17 08:22:38 51°14.831 2°50.237 13 244 2.4 102000 89
2003-01-17 08:22:42 51°14.829 2°50.236 12.5 252 2.4 102010 89
2003-01-17 08:22:48 51°14.827 2°50.233 13.9 251 2.4 102010 89
2003-01-17 08:22:52 51°14.825 2°50.231 14.4 252 2.4 102000 89
2003-01-17 08:22:58 51°14.823 2°50.228 13.6 251 2.4 102000 89
2003-01-17 08:23:02 51°14.822 2°50.226 14.2 248 2.4 102000 89
2003-01-17 08:23:08 51°14.819 2°50.223 12.9 241 2.4 102000 89
2003-01-17 08:23:13 51°14.818 2°50.22 12.5 243 2.5 102000 89
2003-01-17 08:23:18 51°14.816 2°50.218 11.4 250 2.5 102000 89
2003-01-17 08:23:22 51°14.814 2°50.216 12.2 246 2.5 101990 89
2003-01-17 08:23:28 51°14.812 2°50.214 12.2 241 2.5 101990 89
2003-01-17 08:23:32 51°14.811 2°50.212 12.3 242 2.5 101990 89
2003-01-17 08:23:38 51°14.809 2°50.209 11.7 238 2.5 101990 89
2003-01-17 08:23:42 51°14.807 2°50.208 11.6 236 2.5 102000 89
2003-01-17 08:23:48 51°14.805 2°50.205 11.7 230 2.5 102000 89
2003-01-17 08:23:52 51°14.804 2°50.204 12.3 232 2.5 102010 89
2003-01-17 08:23:58 51°14.802 2°50.202 10.3 228 2.5 102010 89
2003-01-17 08:24:02 51°14.8 2°50.201 11.8 225 2.5 102000 89
2003-01-17 08:24:08 51°14.798 2°50.199 10.8 223 2.5 102000 89
2003-01-17 08:24:13 51°14.796 2°50.198 9.6 223 2.5 102010 89
2003-01-17 08:24:18 51°14.794 2°50.197 11.8 225 2.5 102010 89
2003-01-17 08:24:24 51°14.792 2°50.196 11 221 2.5 102010 89
2003-01-17 08:24:28 51°14.791 2°50.196 10.2 218 2.5 102010 89
2003-01-17 08:24:32 51°14.79 2°50.196 11.7 220 2.5 102020 89
2003-01-17 08:24:38 51°14.788 2°50.196 12.6 217 2.5 102020 89
2003-01-17 08:24:44 51°14.786 2°50.196 12.9 216 2.5 102010 89
2003-01-17 08:24:48 51°14.784 2°50.196 13.3 210 2.5 102010 89
2003-01-17 08:24:52 51°14.783 2°50.196 12.6 208 2.6 102010 89
2003-01-17 08:24:58 51°14.781 2°50.196 12.5 212 2.6 102010 89
2003-01-17 08:25:02 51°14.779 2°50.196 13.8 212 2.6 102000 89
2003-01-17 08:25:08 51°14.777 2°50.196 12.7 212 2.6 102000 89
2003-01-17 08:25:13 51°14.775 2°50.196 13.4 212 2.5 101990 89
2003-01-17 08:25:18 51°14.774 2°50.197 14 215 2.5 101990 89
2003-01-17 08:25:22 51°14.772 2°50.197 13.5 211 2.5 101990 89
2003-01-17 08:25:28 51°14.77 2°50.198 11.6 214 2.5 101990 89
2003-01-17 08:25:32 51°14.769 2°50.198 12.2 212 2.5 101990 89
2003-01-17 08:25:38 51°14.767 2°50.199 11.7 214 2.5 101990 89
2003-01-17 08:25:42 51°14.766 2°50.199 11.4 212 2.5 101990 89
2003-01-17 08:25:48 51°14.764 2°50.199 11.5 215 2.5 101990 89
2003-01-17 08:25:53 51°14.762 2°50.199 11.4 216 2.5 101990 89
2003-01-17 08:25:58 51°14.76 2°50.199 11.5 222 2.5 101990 89
2003-01-17 08:26:02 51°14.758 2°50.199 11.5 225 2.5 101990 89
2003-01-17 08:26:08 51°14.756 2°50.199 11.1 235 2.5 101990 89
2003-01-17 08:26:13 51°14.753 2°50.198 12.7 232 2.5 102000 89
2003-01-17 08:26:18 51°14.75 2°50.197 12.9 229 2.5 102000 89
2003-01-17 08:26:22 51°14.748 2°50.197 13.2 230 2.5 102000 89
2003-01-17 08:26:28 51°14.745 2°50.196 12.2 236 2.5 102000 89
2003-01-17 08:26:33 51°14.742 2°50.195 12.3 234 2.5 102010 89
2003-01-17 08:26:38 51°14.74 2°50.195 11.5 234 2.5 102010 89
2003-01-17 08:26:42 51°14.737 2°50.194 12.4 234 2.5 102000 89
2003-01-17 08:26:48 51°14.733 2°50.193 13.3 231 2.5 102000 89
2003-01-17 08:26:53 51°14.731 2°50.191 12.1 235 2.5 102010 89
2003-01-17 08:26:58 51°14.727 2°50.19 10.5 234 2.5 102010 89
2003-01-17 08:27:04 51°14.724 2°50.189 12.5 242 2.5 102020 89
2003-01-17 08:27:08 51°14.721 2°50.188 13.5 239 2.5 102020 89
2003-01-17 08:27:12 51°14.718 2°50.187 13 239 2.5 102000 89
2003-01-17 08:27:18 51°14.714 2°50.185 14 239 2.5 102000 89
2003-01-17 08:27:22 51°14.712 2°50.183 13.8 242 2.5 102010 89
2003-01-17 08:27:28 51°14.708 2°50.181 13.1 244 2.5 102010 89
2003-01-17 08:27:32 51°14.706 2°50.179 12.6 243 2.5 102000 89
2003-01-17 08:27:38 51°14.702 2°50.176 12.1 239 2.5 102000 89
2003-01-17 08:27:42 51°14.7 2°50.174 12.2 240 2.5 102010 89
2003-01-17 08:27:48 51°14.696 2°50.17 13 242 2.5 102010 89
2003-01-17 08:27:53 51°14.694 2°50.167 13.3 243 2.5 102000 89
2003-01-17 08:27:58 51°14.691 2°50.164 13.1 243 2.5 102000 89
2003-01-17 08:28:02 51°14.689 2°50.162 12.6 243 2.5 102000 89
2003-01-17 08:28:08 51°14.685 2°50.157 12.2 253 2.5 102000 89
2003-01-17 08:28:12 51°14.683 2°50.155 12.4 251 2.5 102010 89
2003-01-17 08:28:18 51°14.679 2°50.15 11.3 251 2.5 102010 89
2003-01-17 08:28:22 51°14.677 2°50.148 11.6 254 2.5 102000 89
2003-01-17 08:28:28 51°14.674 2°50.144 12.5 254 2.5 102000 89
2003-01-17 08:28:32 51°14.672 2°50.141 11.7 251 2.5 102000 89
2003-01-17 08:28:38 51°14.668 2°50.136 12.3 254 2.5 102000 89
2003-01-17 08:28:43 51°14.666 2°50.133 12.4 254 2.5 102000 89
2003-01-17 08:28:48 51°14.663 2°50.129 11.6 263 2.5 102000 89
2003-01-17 08:28:53 51°14.661 2°50.125 12.7 257 2.5 102010 89
2003-01-17 08:28:58 51°14.658 2°50.121 14.2 257 2.5 102010 89
2003-01-17 08:29:02 51°14.656 2°50.117 14.7 258 2.5 102000 89
2003-01-17 08:29:08 51°14.653 2°50.112 13.9 255 2.5 102000 89
2003-01-17 08:29:13 51°14.65 2°50.108 13.3 255 2.5 102000 89
2003-01-17 08:29:18 51°14.648 2°50.104 13.5 260 2.5 102000 89
2003-01-17 08:29:22 51°14.647 2°50.1 13.6 262 2.5 102000 89
2003-01-17 08:29:28 51°14.645 2°50.094 14.2 264 2.5 102000 89
2003-01-17 08:29:33 51°14.643 2°50.09 13.3 262 2.5 101980 89
2003-01-17 08:29:38 51°14.641 2°50.085 12.8 260 2.5 101980 89
2003-01-17 08:29:42 51°14.639 2°50.081 12.8 262 2.5 101990 89
2003-01-17 08:29:48 51°14.637 2°50.075 14.1 262 2.5 101990 89
2003-01-17 08:29:53 51°14.635 2°50.07 15 264 2.5 101990 89
2003-01-17 08:29:58 51°14.633 2°50.065 12.8 266 2.5 101990 89
2003-01-17 08:30:04 51°14.631 2°50.059 13.1 265 2.5 101990 89
2003-01-17 08:30:08 51°14.629 2°50.055 12.8 272 2.5 101990 89
2003-01-17 08:30:13 51°14.628 2°50.05 13.7 272 2.5 101980 89
2003-01-17 08:30:18 51°14.626 2°50.045 12.8 273 2.5 101980 89
2003-01-17 08:30:23 51°14.624 2°50.04 12.9 274 2.5 101990 89
2003-01-17 08:30:28 51°14.622 2°50.035 12.4 276 2.5 101990 89
2003-01-17 08:30:33 51°14.62 2°50.03 11.6 282 2.5 101980 89
2003-01-17 08:30:38 51°14.618 2°50.025 12.1 267 2.5 101980 89
2003-01-17 08:30:42 51°14.616 2°50.021 12.7 267 2.5 101980 89
2003-01-17 08:30:48 51°14.614 2°50.015 14.3 277 2.5 101980 89
2003-01-17 08:30:53 51°14.612 2°50.009 14.6 278 2.5 101980 89
2003-01-17 08:30:58 51°14.61 2°50.004 13.8 279 2.5 101980 89
2003-01-17 08:31:02 51°14.609 2°50 14.6 274 2.5 101980 89
2003-01-17 08:31:08 51°14.607 2°49.993 13.9 275 2.5 101980 89
2003-01-17 08:31:12 51°14.606 2°49.989 13.1 280 2.5 101980 89
2003-01-17 08:31:18 51°14.605 2°49.982 13.8 281 2.5 101980 89
2003-01-17 08:31:24 51°14.603 2°49.976 13.3 282 2.5 101970 89
2003-01-17 08:31:28 51°14.602 2°49.972 14.1 282 2.5 101970 89
2003-01-17 08:31:33 51°14.601 2°49.966 14 281 2.5 101960 89
2003-01-17 08:31:38 51°14.6 2°49.96 13.8 282 2.5 101960 89
2003-01-17 08:31:43 51°14.599 2°49.955 13.8 280 2.5 101980 89
2003-01-17 08:31:48 51°14.598 2°49.949 13.5 284 2.5 101980 89
2003-01-17 08:31:53 51°14.597 2°49.943 13.9 283 2.5 101980 89
2003-01-17 08:31:58 51°14.596 2°49.938 13.3 285 2.5 101980 89
2003-01-17 08:32:02 51°14.595 2°49.933 13.5 277 2.5 101970 89
2003-01-17 08:32:08 51°14.594 2°49.926 12.5 278 2.5 101970 89
2003-01-17 08:32:13 51°14.593 2°49.92 12.5 284 2.5 101980 89
2003-01-17 08:32:18 51°14.592 2°49.914 11.1 287 2.5 101980 89
2003-01-17 08:32:22 51°14.591 2°49.91 11.7 285 2.5 101980 89
2003-01-17 08:32:28 51°14.59 2°49.903 12.4 293 2.5 101980 89
2003-01-17 08:32:33 51°14.589 2°49.896 11.1 292 2.6 101980 89
2003-01-17 08:32:38 51°14.589 2°49.89 11.6 288 2.6 101980 89
2003-01-17 08:32:43 51°14.588 2°49.883 10.8 294 2.5 101990 89
2003-01-17 08:32:48 51°14.587 2°49.877 11.6 286 2.5 101990 89
2003-01-17 08:32:54 51°14.586 2°49.869 11.2 288 2.6 101990 89
2003-01-17 08:32:58 51°14.586 2°49.864 12.6 289 2.6 101990 89
2003-01-17 08:33:02 51°14.585 2°49.859 12.7 292 2.6 101990 89
2003-01-17 08:33:08 51°14.584 2°49.851 13.5 293 2.6 101990 89
2003-01-17 08:33:13 51°14.584 2°49.844 12.4 296 2.6 101980 89
2003-01-17 08:33:18 51°14.583 2°49.838 13.6 297 2.6 101980 89
2003-01-17 08:33:22 51°14.583 2°49.832 13.5 299 2.6 101990 89
2003-01-17 08:33:28 51°14.583 2°49.824 12.2 296 2.6 101990 89
2003-01-17 08:33:33 51°14.583 2°49.817 12.2 287 2.6 101980 89
2003-01-17 08:33:38 51°14.583 2°49.81 11.8 298 2.6 101980 89
2003-01-17 08:33:44 51°14.583 2°49.802 12.3 298 2.6 101980 89
2003-01-17 08:33:48 51°14.583 2°49.797 13.4 297 2.6 101980 89
2003-01-17 08:33:53 51°14.583 2°49.791 13.7 301 2.6 101980 89
2003-01-17 08:33:58 51°14.583 2°49.784 13 298 2.6 101980 89
2003-01-17 08:34:02 51°14.583 2°49.78 13 296 2.6 101980 89
2003-01-17 08:34:08 51°14.583 2°49.772 13.5 298 2.6 101980 89
2003-01-17 08:34:14 51°14.583 2°49.764 12.8 304 2.6 101980 89
2003-01-17 08:34:18 51°14.583 2°49.76 12.8 301 2.6 101980 89
2003-01-17 08:34:22 51°14.583 2°49.755 13.1 298 2.6 101980 89
2003-01-17 08:34:28 51°14.583 2°49.748 11.1 303 2.6 101980 89
2003-01-17 08:34:32 51°14.583 2°49.743 9.8 300 2.6 101980 89
2003-01-17 08:34:38 51°14.584 2°49.736 11.3 303 2.6 101980 89
2003-01-17 08:34:42 51°14.584 2°49.731 10.3 313 2.6 101980 89
2003-01-17 08:34:48 51°14.584 2°49.724 13 292 2.6 101980 89
2003-01-17 08:34:53 51°14.584 2°49.718 13.3 298 2.6 101980 89
2003-01-17 08:34:58 51°14.584 2°49.712 11.1 302 2.6 101980 89
2003-01-17 08:35:02 51°14.585 2°49.708 13.8 298 2.6 101980 89
2003-01-17 08:35:08 51°14.586 2°49.701 11 299 2.6 101980 89
2003-01-17 08:35:13 51°14.587 2°49.695 10.2 313 2.6 101970 89
2003-01-17 08:35:18 51°14.588 2°49.69 10.2 316 2.6 101970 89
2003-01-17 08:35:24 51°14.589 2°49.683 9.1 319 2.6 101970 89
2003-01-17 08:35:28 51°14.589 2°49.679 8.7 301 2.6 101970 89
2003-01-17 08:35:32 51°14.59 2°49.675 7.7 303 2.6 101980 89
2003-01-17 08:35:38 51°14.591 2°49.668 8.8 309 2.6 101980 89
2003-01-17 08:35:42 51°14.592 2°49.663 10.9 302 2.6 101980 89
2003-01-17 08:35:48 51°14.592 2°49.656 9.5 302 2.6 101980 89
2003-01-17 08:35:53 51°14.592 2°49.651 6 309 2.6 101980 89
2003-01-17 08:35:58 51°14.593 2°49.646 10.5 320 2.6 101980 89
2003-01-17 08:36:04 51°14.594 2°49.639 14.1 316 2.6 101980 89
2003-01-17 08:36:08 51°14.595 2°49.634 12.6 296 2.6 101980 89
2003-01-17 08:36:12 51°14.595 2°49.63 7.3 291 2.6 101980 89
2003-01-17 08:36:18 51°14.596 2°49.624 7.6 310 2.6 101980 89
2003-01-17 08:36:22 51°14.597 2°49.62 5.3 322 2.6 101980 89
2003-01-17 08:36:28 51°14.598 2°49.613 8.3 300 2.6 101980 89
2003-01-17 08:36:32 51°14.599 2°49.609 9.3 305 2.6 101970 89
2003-01-17 08:36:38 51°14.601 2°49.602 6.3 295 2.6 101970 89
2003-01-17 08:36:42 51°14.601 2°49.598 5.6 327 2.6 101970 89
2003-01-17 08:36:48 51°14.603 2°49.59 7.3 302 2.6 101970 89
2003-01-17 08:36:53 51°14.604 2°49.585 7.4 320 2.6 101970 89
2003-01-17 08:36:58 51°14.605 2°49.58 5.7 329 2.6 101970 89
2003-01-17 08:37:04 51°14.606 2°49.573 6.2 339 2.6 101960 89
2003-01-17 08:37:08 51°14.607 2°49.569 7.1 297 2.6 101960 89
2003-01-17 08:37:13 51°14.608 2°49.563 5.9 289 2.6 101970 89
2003-01-17 08:37:18 51°14.61 2°49.558 4.4 316 2.6 101970 89
2003-01-17 08:37:22 51°14.61 2°49.553 4.4 317 2.6 101980 89
2003-01-17 08:37:28 51°14.612 2°49.547 5 316 2.6 101980 89
2003-01-17 08:37:33 51°14.614 2°49.541 6.3 320 2.6 101970 89
2003-01-17 08:37:38 51°14.615 2°49.535 10.2 310 2.6 101970 89
2003-01-17 08:37:42 51°14.616 2°49.531 5.4 305 2.6 101980 89
2003-01-17 08:37:48 51°14.618 2°49.524 5.8 306 2.6 101980 89
2003-01-17 08:37:53 51°14.62 2°49.518 3 317 2.6 101980 89
2003-01-17 08:37:58 51°14.622 2°49.513 2.6 300 2.6 101980 89
2003-01-17 08:38:03 51°14.623 2°49.507 3.3 317 2.6 101980 89
2003-01-17 08:38:08 51°14.625 2°49.501 4.1 320 2.6 101980 89
2003-01-17 08:38:14 51°14.627 2°49.495 1.6 302 2.6 101980 89
2003-01-17 08:38:18 51°14.628 2°49.49 1.3 338 2.6 101980 89
2003-01-17 08:38:22 51°14.63 2°49.486 1.5 325 2.7 101980 89
2003-01-17 08:38:28 51°14.632 2°49.479 2.6 346 2.7 101980 89
2003-01-17 08:38:32 51°14.633 2°49.475 1.5 325 2.7 101980 89
2003-01-17 08:38:38 51°14.635 2°49.469 3.2 333 2.7 101980 89
2003-01-17 08:38:42 51°14.637 2°49.465 2.7 333 2.7 101980 89
2003-01-17 08:38:48 51°14.639 2°49.458 6.3 320 2.7 101980 89
2003-01-17 08:38:52 51°14.641 2°49.454 1.5 321 2.7 101990 89
2003-01-17 08:38:58 51°14.644 2°49.448 2.6 322 2.7 101990 89
2003-01-17 08:39:02 51°14.645 2°49.443 2.6 326 2.7 101980 89
2003-01-17 08:39:08 51°14.648 2°49.437 3.1 339 2.7 101980 89
2003-01-17 08:39:13 51°14.65 2°49.432 2.8 333 2.7 101970 89
2003-01-17 08:39:18 51°14.652 2°49.427 3.6 329 2.7 101970 89
2003-01-17 08:39:24 51°14.655 2°49.421 3.2 333 2.7 101970 89
2003-01-17 08:39:28 51°14.656 2°49.417 5.7 302 2.7 101970 89
2003-01-17 08:39:32 51°14.658 2°49.412 2.4 336 2.7 101980 89
2003-01-17 08:39:38 51°14.66 2°49.406 3.6 331 2.7 101980 89
2003-01-17 08:39:42 51°14.661 2°49.402 2 1 2.6 101980 89
2003-01-17 08:39:48 51°14.664 2°49.396 3.6 322 2.6 101980 89
2003-01-17 08:39:53 51°14.667 2°49.391 1.7 330 2.6 101970 89
2003-01-17 08:39:58 51°14.669 2°49.386 3.3 329 2.6 101970 89
2003-01-17 08:40:02 51°14.671 2°49.382 1.7 348 2.6 101970 89
2003-01-17 08:40:08 51°14.674 2°49.376 2.6 335 2.6 101970 89
2003-01-17 08:40:12 51°14.675 2°49.372 2.6 336 2.6 101980 89
2003-01-17 08:40:18 51°14.678 2°49.366 2.6 340 2.6 101980 89
2003-01-17 08:40:24 51°14.681 2°49.36 2.9 334 2.6 101970 89
2003-01-17 08:40:28 51°14.683 2°49.356 5.1 341 2.6 101970 89
2003-01-17 08:40:33 51°14.685 2°49.351 3.9 349 2.6 101980 89
2003-01-17 08:40:38 51°14.687 2°49.346 1.6 330 2.6 101980 89
2003-01-17 08:40:43 51°14.69 2°49.341 1.8 353 2.6 101970 89
2003-01-17 08:40:48 51°14.692 2°49.336 5.7 353 2.6 101970 89
2003-01-17 08:40:52 51°14.694 2°49.333 9.4 352 2.6 101970 89
2003-01-17 08:40:58 51°14.698 2°49.327 9.5 357 2.6 101970 89
2003-01-17 08:41:02 51°14.7 2°49.324 8.1 332 2.6 101970 89
2003-01-17 08:41:08 51°14.703 2°49.318 11.1 2 2.6 101970 89
2003-01-17 08:41:13 51°14.706 2°49.314 10.1 351 2.7 101960 89
2003-01-17 08:41:18 51°14.709 2°49.309 12.1 1 2.7 101960 89
2003-01-17 08:41:22 51°14.711 2°49.306 13 2 2.7 101960 89
2003-01-17 08:41:28 51°14.714 2°49.301 9.7 348 2.7 101960 89
2003-01-17 08:41:33 51°14.718 2°49.296 11.7 355 2.7 101970 89
2003-01-17 08:41:38 51°14.721 2°49.292 8.6 360 2.7 101970 89
2003-01-17 08:41:43 51°14.724 2°49.288 8.7 359 2.7 101970 89
2003-01-17 08:41:48 51°14.727 2°49.284 10.7 352 2.7 101970 89
2003-01-17 08:41:53 51°14.73 2°49.28 13.4 4 2.7 101970 89
2003-01-17 08:41:58 51°14.733 2°49.277 9.9 344 2.7 101970 89
2003-01-17 08:42:02 51°14.735 2°49.274 9.9 345 2.7 101970 89
2003-01-17 08:42:08 51°14.739 2°49.269 12.6 5 2.7 101970 89
2003-01-17 08:42:13 51°14.742 2°49.266 10.2 7 2.7 101960 89
2003-01-17 08:42:18 51°14.745 2°49.262 7.8 19 2.7 101960 89
2003-01-17 08:42:22 51°14.747 2°49.259 10.8 358 2.7 101960 89
2003-01-17 08:42:28 51°14.751 2°49.256 10.8 13 2.7 101960 89
2003-01-17 08:42:32 51°14.753 2°49.253 12.1 6 2.7 101970 89
2003-01-17 08:42:38 51°14.757 2°49.249 12.1 8 2.7 101970 89
2003-01-17 08:42:42 51°14.76 2°49.246 12.2 8 2.7 101960 89
2003-01-17 08:42:48 51°14.764 2°49.242 12.1 2 2.7 101960 89
2003-01-17 08:42:52 51°14.766 2°49.24 11.2 6 2.7 101970 89
2003-01-17 08:42:58 51°14.771 2°49.236 12.6 11 2.7 101970 89
2003-01-17 08:43:02 51°14.774 2°49.234 15.7 12 2.7 101960 89
2003-01-17 08:43:08 51°14.778 2°49.23 14.1 13 2.7 101960 89
2003-01-17 08:43:12 51°14.781 2°49.228 13.4 16 2.7 101960 89
2003-01-17 08:43:18 51°14.785 2°49.224 13.2 13 2.7 101960 89
2003-01-17 08:43:22 51°14.788 2°49.222 13 7 2.6 101950 89
2003-01-17 08:43:28 51°14.792 2°49.219 12.9 12 2.6 101950 89
2003-01-17 08:43:33 51°14.796 2°49.217 12.5 11 2.6 101950 89
2003-01-17 08:43:38 51°14.8 2°49.215 13.1 13 2.6 101950 89
2003-01-17 08:43:43 51°14.804 2°49.212 14.1 17 2.6 101950 89
2003-01-17 08:43:48 51°14.808 2°49.21 13.5 20 2.6 101950 89
2003-01-17 08:43:53 51°14.812 2°49.209 12.6 20 2.6 101950 89
2003-01-17 08:43:58 51°14.816 2°49.207 11.9 20 2.6 101950 89
2003-01-17 08:44:02 51°14.819 2°49.206 12 19 2.6 101950 89
2003-01-17 08:44:08 51°14.824 2°49.204 9.8 14 2.6 101950 89
2003-01-17 08:44:13 51°14.828 2°49.203 10.1 14 2.6 101970 89
2003-01-17 08:44:18 51°14.832 2°49.202 10.8 24 2.6 101970 89
2003-01-17 08:44:23 51°14.836 2°49.201 10.5 23 2.6 101960 89
2003-01-17 08:44:28 51°14.84 2°49.2 13.6 31 2.6 101960 89
2003-01-17 08:44:33 51°14.845 2°49.199 12.8 24 2.6 101960 89
2003-01-17 08:44:38 51°14.85 2°49.199 11.9 39 2.6 101960 89
2003-01-17 08:44:42 51°14.853 2°49.199 12 41 2.6 101960 89
2003-01-17 08:44:48 51°14.858 2°49.199 11 44 2.6 101960 89
2003-01-17 08:44:53 51°14.863 2°49.2 9.1 134 2.6 101970 89
2003-01-17 08:44:58 51°14.867 2°49.2 10.2 52 2.6 101970 89
2003-01-17 08:45:02 51°14.87 2°49.201 11.5 60 2.6 101970 89
2003-01-17 08:45:08 51°14.875 2°49.203 9.4 56 2.6 101970 89
2003-01-17 08:45:13 51°14.879 2°49.205 12.8 59 2.6 101980 89
2003-01-17 08:45:18 51°14.883 2°49.207 11.2 66 2.6 101980 89
2003-01-17 08:45:22 51°14.887 2°49.209 10.9 72 2.6 101990 89
2003-01-17 08:45:28 51°14.891 2°49.212 12.2 72 2.6 101990 89
2003-01-17 08:45:33 51°14.895 2°49.216 11.3 79 2.6 101990 89
2003-01-17 08:45:38 51°14.899 2°49.218 10.8 76 2.6 101990 89
2003-01-17 08:45:42 51°14.902 2°49.221 10.9 76 2.6 101990 89
2003-01-17 08:45:48 51°14.906 2°49.226 12.3 82 2.6 101990 89
2003-01-17 08:45:53 51°14.91 2°49.229 12.5 84 2.6 101990 89
2003-01-17 08:45:58 51°14.914 2°49.233 10 81 2.6 101990 89
2003-01-17 08:46:02 51°14.916 2°49.236 11.4 81 2.6 101990 89
2003-01-17 08:46:08 51°14.92 2°49.241 11.3 92 2.6 101990 89
2003-01-17 08:46:13 51°14.924 2°49.246 11.7 86 2.7 102000 89
2003-01-17 08:46:18 51°14.927 2°49.25 11.7 90 2.7 102000 89
2003-01-17 08:46:24 51°14.93 2°49.255 11.6 91 2.7 102000 89
2003-01-17 08:46:28 51°14.932 2°49.259 11.6 88 2.7 102000 89
2003-01-17 08:46:33 51°14.936 2°49.263 11 92 2.7 101990 89
2003-01-17 08:46:38 51°14.939 2°49.267 11 99 2.7 101990 89
2003-01-17 08:46:42 51°14.941 2°49.271 11.2 95 2.7 101990 89
2003-01-17 08:46:48 51°14.944 2°49.277 9.5 101 2.7 101990 89
2003-01-17 08:46:53 51°14.947 2°49.282 9.9 110 2.7 101990 89
2003-01-17 08:46:58 51°14.949 2°49.287 11.4 109 2.7 101990 89
2003-01-17 08:47:03 51°14.951 2°49.292 11.2 110 2.7 101980 89
2003-01-17 08:47:08 51°14.953 2°49.297 12.7 112 2.7 101980 89
2003-01-17 08:47:13 51°14.955 2°49.302 12.9 109 2.7 101990 89
2003-01-17 08:47:18 51°14.957 2°49.308 10.2 119 2.7 101990 89
2003-01-17 08:47:22 51°14.959 2°49.311 11.9 114 2.7 101980 89
2003-01-17 08:47:28 51°14.961 2°49.318 12.2 115 2.7 101980 89
2003-01-17 08:47:33 51°14.963 2°49.323 12.7 125 2.7 102000 89
2003-01-17 08:47:38 51°14.965 2°49.327 11.3 120 2.7 102000 89
2003-01-17 08:47:42 51°14.966 2°49.331 10.8 128 2.7 101980 89
2003-01-17 08:47:48 51°14.968 2°49.337 10.8 112 2.7 101980 89
2003-01-17 08:47:53 51°14.97 2°49.342 11.1 119 2.7 101980 89
2003-01-17 08:47:58 51°14.972 2°49.347 11.9 119 2.7 101980 89
2003-01-17 08:48:02 51°14.973 2°49.351 12.4 117 2.7 101980 89
2003-01-17 08:48:08 51°14.976 2°49.357 12.5 112 2.7 101980 89
2003-01-17 08:48:12 51°14.977 2°49.361 13.5 114 2.7 101980 89
2003-01-17 08:48:18 51°14.979 2°49.367 12.3 111 2.7 101980 89
2003-01-17 08:48:23 51°14.981 2°49.371 11 113 2.7 101980 89
2003-01-17 08:48:28 51°14.983 2°49.377 11.8 113 2.7 101980 89
2003-01-17 08:48:32 51°14.984 2°49.38 11.5 115 2.7 102000 89
2003-01-17 08:48:38 51°14.986 2°49.387 10.3 128 2.7 102000 89
2003-01-17 08:48:42 51°14.987 2°49.391 10.5 117 2.7 102000 89
2003-01-17 08:48:48 51°14.989 2°49.397 10.6 113 2.7 102000 89
2003-01-17 08:48:53 51°14.991 2°49.402 12.5 107 2.7 101990 89
2003-01-17 08:48:58 51°14.993 2°49.407 13.6 106 2.7 101990 89
2003-01-17 08:49:04 51°14.994 2°49.414 13.6 107 2.7 101990 89
2003-01-17 08:49:08 51°14.996 2°49.418 12.3 111 2.7 101990 89
2003-01-17 08:49:12 51°14.997 2°49.423 10.8 117 2.7 101980 89
2003-01-17 08:49:18 51°14.999 2°49.429 10.7 123 2.7 101980 89
2003-01-17 08:49:22 51°15 2°49.434 10.1 131 2.7 101980 89
2003-01-17 08:49:28 51°15.002 2°49.44 10.8 131 2.7 101980 89
2003-01-17 08:49:33 51°15.003 2°49.446 11 130 2.7 102010 89
2003-01-17 08:49:38 51°15.005 2°49.451 11.1 125 2.7 102010 89
2003-01-17 08:49:43 51°15.006 2°49.457 11 123 2.7 101970 89
2003-01-17 08:49:48 51°15.007 2°49.462 11.7 125 2.7 101970 89
2003-01-17 08:49:53 51°15.009 2°49.468 12.8 127 2.7 101980 89
2003-01-17 08:49:58 51°15.01 2°49.473 10.7 117 2.7 101980 89
2003-01-17 08:50:02 51°15.011 2°49.478 11.5 116 2.7 101980 89
2003-01-17 08:50:08 51°15.013 2°49.484 10.4 114 2.7 101980 89
2003-01-17 08:50:12 51°15.014 2°49.489 10.4 124 2.7 101980 89
2003-01-17 08:50:18 51°15.016 2°49.495 12.5 113 2.7 101980 89
2003-01-17 08:50:22 51°15.017 2°49.5 10.2 123 2.7 101970 89
2003-01-17 08:50:28 51°15.019 2°49.506 11.1 122 2.7 101970 89
2003-01-17 08:50:32 51°15.02 2°49.511 11.1 125 2.7 101980 89
2003-01-17 08:50:38 51°15.022 2°49.518 11.9 120 2.7 101980 89
2003-01-17 08:50:42 51°15.023 2°49.522 11.4 119 2.8 101980 89
2003-01-17 08:50:48 51°15.025 2°49.529 10.2 125 2.8 101980 89
2003-01-17 08:50:52 51°15.026 2°49.533 9.4 132 2.8 101990 89
2003-01-17 08:50:58 51°15.028 2°49.54 11.1 122 2.8 101990 89
2003-01-17 08:51:02 51°15.029 2°49.545 11.3 118 2.8 101990 89
2003-01-17 08:51:08 51°15.03 2°49.552 10.9 120 2.8 101990 89
2003-01-17 08:51:13 51°15.032 2°49.557 10.7 119 2.8 101990 89
2003-01-17 08:51:18 51°15.033 2°49.563 10.2 128 2.8 101990 89
2003-01-17 08:51:24 51°15.035 2°49.57 10.7 124 2.8 101980 89
2003-01-17 08:51:28 51°15.036 2°49.574 11.2 126 2.8 101980 89
2003-01-17 08:51:32 51°15.037 2°49.579 10.2 122 2.8 101990 89
2003-01-17 08:51:38 51°15.039 2°49.586 9.5 116 2.8 101990 89
2003-01-17 08:51:42 51°15.04 2°49.59 10.2 119 2.8 101970 89
2003-01-17 08:51:48 51°15.042 2°49.597 9.1 123 2.8 101970 89
2003-01-17 08:51:53 51°15.043 2°49.603 8.9 129 2.8 101980 89
2003-01-17 08:51:58 51°15.044 2°49.608 11.2 122 2.8 101980 89
2003-01-17 08:52:02 51°15.045 2°49.613 11.3 123 2.8 101980 89
2003-01-17 08:52:08 51°15.047 2°49.62 10.7 119 2.8 101980 89
2003-01-17 08:52:13 51°15.048 2°49.625 9 125 2.8 101980 89
2003-01-17 08:52:18 51°15.05 2°49.631 10.2 121 2.8 101980 89
2003-01-17 08:52:24 51°15.051 2°49.638 9.9 122 2.8 101970 89
2003-01-17 08:52:28 51°15.053 2°49.642 9 132 2.8 101970 89
2003-01-17 08:52:32 51°15.054 2°49.647 11.3 124 2.8 101980 89
2003-01-17 08:52:38 51°15.056 2°49.653 12.3 127 2.8 101980 89
2003-01-17 08:52:42 51°15.056 2°49.658 11.9 130 2.8 101980 89
2003-01-17 08:52:48 51°15.058 2°49.665 11.7 122 2.8 101980 89
2003-01-17 08:52:53 51°15.06 2°49.67 11.2 123 2.8 101980 89
2003-01-17 08:52:58 51°15.061 2°49.676 12.3 126 2.8 101980 89
2003-01-17 08:53:02 51°15.063 2°49.68 12.6 130 2.8 101990 89
2003-01-17 08:53:08 51°15.064 2°49.687 11.8 130 2.8 101990 89
2003-01-17 08:53:13 51°15.066 2°49.693 11.6 123 2.8 101990 89
2003-01-17 08:53:18 51°15.067 2°49.698 12.6 114 2.8 101990 89
2003-01-17 08:53:22 51°15.068 2°49.703 11.1 116 2.8 101990 89
2003-01-17 08:53:28 51°15.07 2°49.71 11.8 119 2.8 101990 89
2003-01-17 08:53:34 51°15.072 2°49.716 11.8 124 2.7 101980 88
2003-01-17 08:53:38 51°15.073 2°49.721 12.6 125 2.7 101980 88
2003-01-17 08:53:42 51°15.074 2°49.726 12.3 117 2.7 101980 88
2003-01-17 08:53:48 51°15.076 2°49.732 12.3 122 2.7 101980 88
2003-01-17 08:53:53 51°15.078 2°49.738 13.9 119 2.7 101980 88
2003-01-17 08:53:58 51°15.079 2°49.744 14 118 2.7 101980 88
2003-01-17 08:54:02 51°15.08 2°49.748 13.7 125 2.7 101980 88
2003-01-17 08:54:08 51°15.082 2°49.755 13.8 127 2.7 101980 88
2003-01-17 08:54:13 51°15.083 2°49.761 14.2 121 2.7 101980 88
2003-01-17 08:54:18 51°15.085 2°49.766 12.7 132 2.7 101980 88
2003-01-17 08:54:22 51°15.086 2°49.771 12.7 128 2.7 101970 88
2003-01-17 08:54:28 51°15.088 2°49.778 11.3 124 2.7 101970 88
2003-01-17 08:54:32 51°15.089 2°49.782 12.2 123 2.6 101990 88
2003-01-17 08:54:38 51°15.091 2°49.789 9 130 2.6 101990 88
2003-01-17 08:54:42 51°15.092 2°49.793 10.7 121 2.6 101990 88
2003-01-17 08:54:48 51°15.094 2°49.8 14.4 121 2.6 101990 88
2003-01-17 08:54:53 51°15.095 2°49.806 12 131 2.6 101980 88
2003-01-17 08:54:58 51°15.096 2°49.812 13.4 123 2.6 101980 88
2003-01-17 08:55:02 51°15.097 2°49.816 12.7 125 2.6 101980 88
2003-01-17 08:55:08 51°15.099 2°49.823 12.4 119 2.6 101980 88
2003-01-17 08:55:13 51°15.1 2°49.829 13.3 117 2.6 101980 88
2003-01-17 08:55:18 51°15.102 2°49.834 11.4 124 2.6 101980 88
2003-01-17 08:55:22 51°15.103 2°49.839 12.9 131 2.6 101970 88
2003-01-17 08:55:28 51°15.105 2°49.846 11.4 134 2.6 101970 88
2003-01-17 08:55:32 51°15.106 2°49.851 11.7 125 2.6 101970 88
2003-01-17 08:55:38 51°15.107 2°49.858 11 120 2.6 101970 88
2003-01-17 08:55:42 51°15.108 2°49.862 11.3 125 2.6 101980 88
2003-01-17 08:55:48 51°15.11 2°49.869 12 126 2.6 101980 88
2003-01-17 08:55:53 51°15.111 2°49.875 13 128 2.6 101990 88
2003-01-17 08:55:58 51°15.112 2°49.881 11.4 128 2.6 101990 88
2003-01-17 08:56:02 51°15.114 2°49.885 11.4 126 2.6 101970 88
2003-01-17 08:56:08 51°15.115 2°49.892 11.9 126 2.6 101970 88
2003-01-17 08:56:12 51°15.116 2°49.897 10.7 127 2.6 101980 88
2003-01-17 08:56:18 51°15.117 2°49.904 10.2 132 2.6 101980 88
2003-01-17 08:56:22 51°15.118 2°49.908 10.7 129 2.6 101970 88
2003-01-17 08:56:28 51°15.12 2°49.916 10.3 120 2.6 101970 88
2003-01-17 08:56:33 51°15.121 2°49.921 9.6 133 2.6 101980 88
2003-01-17 08:56:38 51°15.122 2°49.927 9.6 134 2.6 101980 88
2003-01-17 08:56:44 51°15.123 2°49.934 9.9 127 2.6 101970 88
2003-01-17 08:56:48 51°15.124 2°49.939 11 130 2.6 101970 88
2003-01-17 08:56:52 51°15.125 2°49.944 11.1 127 2.6 101970 88
2003-01-17 08:56:58 51°15.126 2°49.951 11.8 132 2.6 101970 88
2003-01-17 08:57:03 51°15.127 2°49.957 11 127 2.7 101960 89
2003-01-17 08:57:08 51°15.129 2°49.963 10.5 129 2.7 101960 89
2003-01-17 08:57:13 51°15.13 2°49.968 10.7 126 2.7 101970 89
2003-01-17 08:57:18 51°15.131 2°49.974 11.1 144 2.7 101970 89
2003-01-17 08:57:22 51°15.132 2°49.979 10 127 2.7 101970 88
2003-01-17 08:57:28 51°15.133 2°49.986 10.9 135 2.7 101970 88
2003-01-17 08:57:33 51°15.134 2°49.992 10.3 131 2.7 101980 88
2003-01-17 08:57:38 51°15.135 2°49.998 12.3 132 2.7 101980 88
2003-01-17 08:57:44 51°15.137 2°50.005 12.3 126 2.6 101970 88
2003-01-17 08:57:48 51°15.138 2°50.009 13.2 134 2.6 101970 88
2003-01-17 08:57:53 51°15.139 2°50.015 13.5 126 2.7 101970 88
2003-01-17 08:57:58 51°15.14 2°50.021 11.8 130 2.7 101970 88
2003-01-17 08:58:04 51°15.142 2°50.028 11.1 129 2.7 101960 88
2003-01-17 08:58:08 51°15.143 2°50.033 10.9 127 2.7 101960 88
2003-01-17 08:58:12 51°15.144 2°50.037 13.1 125 2.7 101970 88
2003-01-17 08:58:18 51°15.145 2°50.044 12.1 125 2.7 101970 88
2003-01-17 08:58:22 51°15.146 2°50.049 11.7 133 2.7 101980 88
2003-01-17 08:58:28 51°15.148 2°50.056 9.8 130 2.7 101980 88
2003-01-17 08:58:33 51°15.149 2°50.062 8.9 127 2.7 101960 88
2003-01-17 08:58:38 51°15.15 2°50.068 10.9 134 2.7 101960 88
2003-01-17 08:58:42 51°15.151 2°50.072 12.1 136 2.7 101980 88
2003-01-17 08:58:48 51°15.153 2°50.079 11.9 130 2.7 101980 88
2003-01-17 08:58:52 51°15.153 2°50.084 10.8 134 2.7 101970 88
2003-01-17 08:58:58 51°15.155 2°50.09 11.8 128 2.7 101970 88
2003-01-17 08:59:02 51°15.156 2°50.094 11.7 130 2.7 101940 88
2003-01-17 08:59:08 51°15.157 2°50.1 12.5 132 2.7 101940 88
2003-01-17 08:59:13 51°15.158 2°50.106 13.1 130 2.7 101950 88
2003-01-17 08:59:18 51°15.159 2°50.111 12.2 127 2.7 101950 88
2003-01-17 08:59:22 51°15.16 2°50.115 11.7 127 2.7 101970 88
2003-01-17 08:59:28 51°15.161 2°50.121 11.1 134 2.7 101970 88
2003-01-17 08:59:33 51°15.162 2°50.125 12.5 132 2.7 101970 88
2003-01-17 08:59:38 51°15.163 2°50.13 11.2 127 2.7 101970 88
2003-01-17 08:59:42 51°15.164 2°50.134 10.4 126 2.7 101960 88
2003-01-17 08:59:48 51°15.165 2°50.14 10.2 135 2.7 101960 88
2003-01-17 08:59:53 51°15.166 2°50.144 10.3 141 2.7 101970 88
2003-01-17 08:59:58 51°15.167 2°50.149 12.2 148 2.7 101970 88
2003-01-17 09:00:02 51°15.167 2°50.153 11.7 139 2.7 101960 88
2003-01-17 09:00:08 51°15.168 2°50.158 11.9 142 2.7 101960 88
2003-01-17 09:00:13 51°15.169 2°50.163 13.6 143 2.7 101950 88
2003-01-17 09:00:18 51°15.17 2°50.168 11.5 148 2.7 101950 88
2003-01-17 09:00:22 51°15.17 2°50.171 11 145 2.7 101950 88
2003-01-17 09:00:28 51°15.171 2°50.177 10.5 147 2.7 101950 88
2003-01-17 09:00:32 51°15.172 2°50.181 10.5 143 2.7 101950 88
2003-01-17 09:00:38 51°15.173 2°50.186 10.6 140 2.7 101950 88
2003-01-17 09:00:44 51°15.174 2°50.192 10.1 138 2.7 101950 88
2003-01-17 09:00:48 51°15.174 2°50.196 12.3 141 2.7 101950 88
2003-01-17 09:00:52 51°15.175 2°50.199 10.8 142 2.7 101940 88
2003-01-17 09:00:58 51°15.175 2°50.205 10 133 2.7 101940 88
2003-01-17 09:01:03 51°15.176 2°50.209 11.8 136 2.7 101940 88
2003-01-17 09:01:08 51°15.177 2°50.214 12.6 136 2.7 101940 88
2003-01-17 09:01:13 51°15.177 2°50.218 12.5 136 2.7 101940 88
2003-01-17 09:01:18 51°15.177 2°50.223 12 142 2.7 101940 88
2003-01-17 09:01:22 51°15.178 2°50.226 12.2 141 2.8 101950 88
2003-01-17 09:01:28 51°15.178 2°50.232 11.6 143 2.8 101950 88
2003-01-17 09:01:33 51°15.179 2°50.236 12 142 2.8 101950 88
2003-01-17 09:01:38 51°15.179 2°50.24 10.3 144 2.8 101950 88
2003-01-17 09:01:43 51°15.179 2°50.245 11.1 150 2.8 101960 88
2003-01-17 09:01:48 51°15.18 2°50.249 9.9 151 2.8 101960 88
2003-01-17 09:01:53 51°15.18 2°50.253 10.6 153 2.8 101950 88
2003-01-17 09:01:58 51°15.18 2°50.258 11.3 158 2.8 101950 88
2003-01-17 09:02:02 51°15.18 2°50.261 12.6 157 2.8 101940 88
2003-01-17 09:02:08 51°15.18 2°50.266 14.7 160 2.8 101940 88
2003-01-17 09:02:14 51°15.181 2°50.271 14 157 2.8 101940 88
2003-01-17 09:02:18 51°15.181 2°50.275 13.2 159 2.8 101940 88
2003-01-17 09:02:23 51°15.181 2°50.279 13.4 158 2.8 101930 88
2003-01-17 09:02:28 51°15.181 2°50.283 14.8 155 2.8 101930 88
2003-01-17 09:02:33 51°15.182 2°50.287 14.1 170 2.8 101940 88
2003-01-17 09:02:38 51°15.182 2°50.29 16 153 2.8 101940 88
2003-01-17 09:02:42 51°15.183 2°50.293 14.3 148 2.8 101950 88
2003-01-17 09:02:48 51°15.183 2°50.297 14.4 157 2.8 101950 88
2003-01-17 09:02:53 51°15.183 2°50.301 15.1 154 2.8 101940 88
2003-01-17 09:02:58 51°15.184 2°50.304 12.8 157 2.8 101940 88
2003-01-17 09:03:03 51°15.184 2°50.307 14 160 2.8 101930 88
2003-01-17 09:03:08 51°15.185 2°50.31 15.2 165 2.8 101930 88
2003-01-17 09:03:13 51°15.186 2°50.313 12.8 150 2.7 101940 88
2003-01-17 09:03:18 51°15.186 2°50.316 16 159 2.7 101940 88
2003-01-17 09:03:22 51°15.187 2°50.318 14.7 162 2.7 101940 88
2003-01-17 09:03:28 51°15.187 2°50.321 14.3 155 2.7 101940 88
2003-01-17 09:03:33 51°15.188 2°50.324 14.3 156 2.7 101930 88
2003-01-17 09:03:38 51°15.189 2°50.326 13.7 161 2.7 101930 88
2003-01-17 09:03:42 51°15.189 2°50.328 13.2 161 2.7 101950 88
2003-01-17 09:03:48 51°15.19 2°50.331 13.9 161 2.7 101950 88
2003-01-17 09:03:53 51°15.19 2°50.334 12.9 163 2.7 101940 88
2003-01-17 09:03:58 51°15.191 2°50.336 14 161 2.7 101940 88
2003-01-17 09:04:02 51°15.192 2°50.338 14.2 157 2.7 101940 88
2003-01-17 09:04:08 51°15.192 2°50.34 12.7 155 2.7 101940 88
2003-01-17 09:04:12 51°15.193 2°50.342 12.4 159 2.7 101950 87
2003-01-17 09:04:18 51°15.194 2°50.345 11.8 166 2.7 101950 87
2003-01-17 09:04:22 51°15.194 2°50.346 11.5 165 2.7 101940 87
2003-01-17 09:04:28 51°15.195 2°50.349 12.5 163 2.7 101940 87
2003-01-17 09:04:32 51°15.195 2°50.351 13.6 163 2.7 101950 87
2003-01-17 09:04:38 51°15.196 2°50.353 12.2 171 2.7 101950 87
2003-01-17 09:04:43 51°15.197 2°50.355 13.3 169 2.7 101930 88
2003-01-17 09:04:48 51°15.198 2°50.357 12.5 160 2.7 101930 88
2003-01-17 09:04:54 51°15.198 2°50.359 14.5 166 2.7 101930 88
2003-01-17 09:04:58 51°15.199 2°50.361 12.4 167 2.7 101930 88
2003-01-17 09:05:03 51°15.199 2°50.363 11.8 161 2.7 101940 88
2003-01-17 09:05:08 51°15.2 2°50.364 12.8 166 2.7 101940 88
2003-01-17 09:05:13 51°15.201 2°50.367 13.5 165 2.7 101950 88
2003-01-17 09:05:18 51°15.202 2°50.368 12.1 163 2.7 101950 88
2003-01-17 09:05:22 51°15.202 2°50.37 15.4 164 2.7 101950 88
2003-01-17 09:05:28 51°15.203 2°50.372 14.5 170 2.7 101950 88
2003-01-17 09:05:34 51°15.204 2°50.374 14.4 169 2.7 101920 88
2003-01-17 09:05:38 51°15.205 2°50.376 12.7 164 2.7 101920 88
2003-01-17 09:05:42 51°15.206 2°50.377 12.8 165 2.7 101920 88
2003-01-17 09:05:48 51°15.207 2°50.379 13 162 2.7 101920 88
2003-01-17 09:05:53 51°15.208 2°50.381 13.1 163 2.7 101930 88
2003-01-17 09:05:58 51°15.209 2°50.382 13.6 166 2.7 101930 88
2003-01-17 09:06:03 51°15.21 2°50.384 13.7 162 2.7 101920 88
2003-01-17 09:06:08 51°15.21 2°50.386 14.4 167 2.7 101920 88
2003-01-17 09:06:14 51°15.212 2°50.388 14.5 172 2.7 101930 88
2003-01-17 09:06:18 51°15.212 2°50.389 13.9 174 2.7 101930 88
2003-01-17 09:06:22 51°15.213 2°50.39 15.3 166 2.7 101930 88
2003-01-17 09:06:28 51°15.215 2°50.392 13.6 163 2.7 101930 88
2003-01-17 09:06:34 51°15.216 2°50.394 12.2 163 2.7 101930 88
2003-01-17 09:06:38 51°15.217 2°50.395 13.4 158 2.7 101930 88
2003-01-17 09:06:42 51°15.218 2°50.396 13.2 157 2.7 101930 87
2003-01-17 09:06:48 51°15.219 2°50.398 15 166 2.7 101930 87
2003-01-17 09:06:52 51°15.22 2°50.399 13.3 156 2.7 101910 87
2003-01-17 09:06:58 51°15.222 2°50.401 12.6 151 2.7 101910 87
2003-01-17 09:07:02 51°15.223 2°50.402 11.7 157 2.7 101940 88
2003-01-17 09:07:08 51°15.224 2°50.404 12.4 154 2.7 101940 88
2003-01-17 09:07:12 51°15.225 2°50.405 10.5 157 2.7 101920 88
2003-01-17 09:07:18 51°15.226 2°50.407 10.5 156 2.7 101920 88
2003-01-17 09:07:24 51°15.228 2°50.408 11.2 150 2.7 101920 88
2003-01-17 09:07:28 51°15.229 2°50.409 13.5 161 2.7 101920 88
2003-01-17 09:07:32 51°15.23 2°50.411 11.7 148 2.7 101930 88
2003-01-17 09:07:38 51°15.231 2°50.412 12.1 150 2.7 101930 88